Location: Christie
(38.0030°N, 122.2066°W)
Time: 10:29:54
(UTC+00:00)

Daily predictions for brighter satellites

Satellite Brightness Start Highest point End
(mag) Time Altitude Azimuth Time Altitude Azimuth Time Altitude Azimuth
Lacrosse 4 Rocket 3.4 12:12:13 25° SE 12:12:13 25° SE 12:14:09 10° SE
Lacrosse 5 2.5 12:14:23 53° ESE 12:14:23 53° ESE 12:18:57 10° NE
CZ-2C R/B 3.1 12:11:20 10° NNE 12:16:08 52° E 12:17:56 33° SSE
Cosmos 1535 Rocket 4.4 12:13:52 10° S 12:20:07 82° E 12:26:19 10° N
Cosmos 2082 Rocket 2.9 12:16:11 15° S 12:20:42 53° ESE 12:26:16 10° NNE
Milstar 3 Cent rocket 4.4 12:21:53 27° SSW 12:21:53 27° SSW 12:27:31 10° SSE
PAYLOAD A 4.0 12:26:41 10° NNE 12:32:01 86° WNW 12:33:25 52° SSW
SL-24 R/B 4.2 12:32:32 10° N 12:37:24 89° E 12:42:14 10° S
Cosmos 1833 Rocket 2.6 12:45:04 59° W 12:45:37 63° WNW 12:51:12 10° NNE
Meteor 1-31 Rocket 4.0 12:42:02 10° NNE 12:44:08 31° NNE 12:44:08 31° NNE
Cosmos 1656 3.5 12:48:20 56° WNW 12:49:08 64° WSW 12:54:29 10° S
Cosmos 2084 Rocket 4.0 12:54:20 45° NNW 12:54:20 45° NNW 12:57:54 10° NNE
Cosmos 1484 Rocket 4.0 12:49:51 10° NNE 12:53:41 45° E 12:57:32 10° S
STARLINK-43 4.1 12:53:49 39° S 12:54:43 49° SE 12:58:19 10° ENE
BREEZE-M DEB (TANK) 3.6 12:58:47 19° NE 12:58:47 19° NE 13:00:06 10° ENE
Meteor PRIRODA 3.6 12:57:53 10° NNE 13:01:34 78° E 13:05:13 10° S
Gbstr 26 Del rocket 2.9 13:01:24 40° SSW 13:02:38 68° SE 13:06:21 10° NE
Cosmos 923 Rocket 4.2 12:57:59 10° NNW 13:03:11 71° ENE 13:08:23 10° SSE
Cosmos 1934 Rocket 4.2 12:57:21 10° SSW 13:03:19 46° WNW 13:09:23 10° N
CZ-4C R/B 4.3 13:05:51 11° NNW 13:05:51 11° NNW 13:07:06 10° N
Cosmos 1980 Rocket 2.9 13:01:37 10° NNW 13:07:13 55° ENE 13:12:46 10° SE
CZ-4B R/B 4.1 13:03:06 10° N 13:07:30 57° WNW 13:11:53 10° SSW
Cosmos 1076 Rocket 3.4 13:04:58 10° S 13:09:20 86° W 13:13:43 10° N
MSX 4.4 13:04:52 10° N 13:09:54 32° WNW 13:10:00 32° WNW
OAO 2 Rocket 3.8 13:11:05 26° SW 13:13:42 52° SSE 13:18:35 10° E
Shenzhou-11 Module 2.8 13:18:00 33° N 13:18:00 33° N 13:20:11 10° ENE
Meteor 1-27 4.3 13:13:20 10° NNW 13:19:04 59° W 13:24:48 10° S
ISS -3.9 13:19:11 49° WNW 13:19:58 79° SW 13:23:19 10° SE
PSLV R/B 3.6 13:16:12 10° N 13:20:02 74° WNW 13:23:56 10° SSW
Cosmos 2369 3.8 13:16:09 17° NW 13:20:31 57° WSW 13:26:06 10° S
Cosmos 967 Rocket 4.4 13:14:52 10° SW 13:21:07 65° WNW 13:27:29 10° NNE
Cosmos 1842 Rocket 4.2 13:23:27 31° W 13:23:40 31° W 13:27:30 10° SSW
Cosmos 1898 Rocket 3.5 13:18:45 10° SSW 13:23:57 87° ESE 13:29:14 10° NNE
Cosmos 2058 2.8 13:20:33 10° S 13:24:45 77° W 13:28:58 10° N
Cosmos 2221 2.8 13:21:41 16° NNW 13:24:55 42° W 13:29:03 10° SSW
Centaur D-1AR AC-39 4.3 13:21:37 10° SW 13:25:26 20° SSE 13:34:13 10° ESE
COSMO-SKYMED 1 2.6 13:23:35 10° SSE 13:27:56 85° ENE 13:32:17 10° N
Cosmos 1153 Rocket 4.4 13:21:59 10° SSW 13:28:06 70° W 13:34:14 10° N
Atlas Centaur 2 3.1 13:26:50 13° SW 13:28:12 16° SSW 13:30:34 10° SSE
ALOS 2.6 13:24:19 10° NNE 13:28:58 68° E 13:33:36 10° S
Cosmos 2360 4.2 13:24:18 10° NNW 13:30:03 79° WSW 13:35:45 10° SSE
PAYLOAD B 4.3 13:27:08 10° NNE 13:32:41 82° ESE 13:38:10 10° SSW
CZ-3B R/B 4.1 13:31:00 10° SW 13:34:54 27° SSE 13:44:55 10° ESE
BREEZE-M DEB (TANK) 3.9 13:36:09 14° NNW 13:36:09 14° NNW 13:37:25 10° N
CZ-4B R/B 3.7 13:31:03 10° NNE 13:36:24 65° ESE 13:41:49 10° S
CZ-4B R/B 4.3 13:34:29 10° NNW 13:35:50 17° NW 13:35:50 17° NW
Cosmos 1937 Rocket 3.5 13:35:30 10° SSW 13:40:39 88° ESE 13:45:50 10° NNE
STARLINK-80 3.4 13:37:40 10° SW 13:41:30 83° SE 13:45:20 10° NE
OAO 3 Rocket 3.9 13:37:21 12° WSW 13:41:34 48° SSE 13:46:07 10° E
Cosmos 2278 3.9 13:36:02 10° NNW 13:41:35 52° WSW 13:47:05 10° S
SJ 16-02 1.2 13:37:35 10° SSW 13:41:57 69° WNW 13:46:20 10° NNE
NOAA 6 4.3 13:38:10 10° NNE 13:43:19 74° ESE 13:48:25 10° S
Okean O Rocket 1.6 13:40:18 10° NNE 13:44:40 85° ESE 13:48:59 10° SSW
Cosmos 2173 Rocket 4.0 13:38:42 10° S 13:45:02 89° W 13:51:18 10° N
Cosmos 1356 Rocket 3.5 13:41:37 10° NNW 13:45:51 57° W 13:50:02 10° S
Meteor 2-20 Rocket 4.4 13:40:06 10° N 13:46:18 86° W 13:52:28 10° S
SJ-12 4.0 13:42:43 10° N 13:46:47 54° WNW 13:50:49 10° SSW
Lacrosse 4 Rocket 3.3 13:48:36 12° WSW 13:48:36 12° WSW 13:50:01 10° SW
Cosmos 1697 Rocket 3.3 13:43:25 10° NW 13:48:20 34° WSW 13:53:20 10° SSW
ASTEX 1 4.2 13:44:23 10° SSW 13:48:40 29° W 13:53:00 10° NNW
STARLINK-48 3.6 13:45:19 10° SW 13:49:10 74° SE 13:53:04 10° NE
NOSS 3-3 (A) 4.0 13:47:55 10° SW 13:53:44 60° NW 14:00:14 10° NNE
CZ-2C R/B 3.8 13:50:52 10° NNW 13:53:51 16° WNW 13:56:48 10° WSW
NOSS 3-3 (C) 3.9 13:48:10 10° SW 13:53:53 60° NW 14:00:18 10° NNE
Cosmos 858 Rocket 4.4 13:48:55 10° SSW 13:54:04 66° WNW 13:59:14 10° NNE
FENGYUN 3A 3.6 13:49:51 10° N 13:55:16 73° WNW 14:00:38 10° SSW
Lacrosse 5 2.9 13:53:40 13° W 13:57:13 27° NW 14:01:32 10° NNE
SL-27 R/B 3.1 13:56:20 10° SW 13:59:16 29° WNW 14:02:14 10° N
CZ-4B DEB 4.4 13:54:34 10° N 13:59:50 50° WNW 14:05:05 10° SW
Cosmos 2151 3.0 13:57:53 10° SSW 14:02:07 61° W 14:06:24 10° N
Cosmos 2082 Rocket 3.3 14:00:44 10° WSW 14:05:06 22° NW 14:09:30 10° N
In-Cosmos 22 Rocket 4.3 14:01:28 10° SSW 14:06:35 48° WNW 14:11:49 10° N
SL-4 R/B 4.4 14:03:45 10° NNW 14:07:00 17° N 14:10:13 10° NE
Cosmos 2298 Rocket 4.4 14:04:57 10° S 14:10:13 72° ESE 14:15:31 10° NNE
METEOR-M 4.4 14:10:22 10° N 14:15:25 44° WNW 14:20:26 10° SW
USA 267 3.3 14:09:55 10° NE 14:16:28 84° NW 14:23:01 10° SW
ATLAS CENTAUR R/B 3.0 14:11:48 10° S 14:16:32 49° ESE 14:21:13 10° NE
Cosmos 1680 Rocket 4.5 14:17:15 10° NW 14:21:41 28° W 14:26:06 10° SSW
